Location: Colebrook
(42.0017°N, 73.0973°W)
Time: 06:09:14
(UTC-04:00)

Tiangong - Visible Passes

Search period start: 28 September 2021 00:00
Search period end: 08 October 2021 00:00
Orbit: 382 x 385 km, 41.5° (Epoch: 27 September)

Date Brightness Start Highest point End Pass type
(mag) Time Alt. Az. Time Alt. Az. Time Alt. Az.
28 Sep 1.5 05:47:12 18° WSW 05:49:18 54° SSE 05:52:24 10° E visible
29 Sep 2.6 04:50:12 31° SE 04:50:12 31° SE 04:52:24 10° E visible
30 Sep 1.1 05:25:22 45° WSW 05:26:10 71° S 05:29:19 10° E visible
01 Oct 3.8 04:28:18 19° E 04:28:18 19° E 04:29:20 10° E visible
01 Oct 1.0 06:00:30 15° W 06:03:00 83° S 06:06:09 10° E visible
02 Oct 1.4 05:03:26 64° ESE 05:03:26 64° ESE 05:06:11 10° E visible
03 Oct 1.0 05:38:34 33° W 05:39:50 74° S 05:42:59 10° ESE visible
04 Oct 3.3 04:41:31 25° E 04:41:31 25° E 04:43:01 10° E visible
04 Oct 1.7 06:13:43 11° W 06:16:33 41° SSW 06:19:33 10° SE visible
05 Oct 1.2 05:16:44 58° S 05:16:44 58° S 05:19:44 10° ESE visible
06 Oct 2.3 05:52:00 21° WSW 05:53:13 27° SSW 05:55:58 10° SE visible
07 Oct 3.3 04:55:08 20° SE 04:55:08 20° SE 04:56:19 10° SE visible
